�v������,���O�C��(��),���O���x(��),�Ɠx(lx),��O�J�Z���T�[(1:�~�J),����(m/s)
2022/9/1 0:00,27.5,94.7,2,0,1
2022/9/1 0:10,27.3,94.7,2,0,2
2022/9/1 0:20,27.5,94.7,2,0,2
2022/9/1 0:30,27.4,94.7,2,0,1
2022/9/1 0:40,27.3,94.8,2,0,1
2022/9/1 0:50,27.3,94.7,2,0,1
2022/9/1 1:00,27.3,94.7,2,0,1
2022/9/1 1:10,27.1,94.7,2,0,1
2022/9/1 1:20,27.1,94.7,2,0,0
2022/9/1 1:30,27.2,94.7,2,0,1
2022/9/1 1:40,27.3,94.7,2,0,1
2022/9/1 1:50,27.3,94.7,2,0,1
2022/9/1 2:00,27.2,94.7,2,0,0
2022/9/1 2:10,27.2,94.7,2,0,1
2022/9/1 2:20,27.4,94.8,2,0,1
2022/9/1 2:30,27.2,94.8,2,0,0
2022/9/1 2:40,27,94.8,2,0,1
2022/9/1 2:50,27.1,94.8,2,0,1
2022/9/1 3:00,27.1,94.7,2,0,1
2022/9/1 3:10,26.9,94.8,2,0,2
2022/9/1 3:20,26.9,94.7,2,0,1
2022/9/1 3:30,27,94.7,2,0,1
2022/9/1 3:40,26.9,94.8,2,0,1
2022/9/1 3:50,27.1,94.8,2,0,1
2022/9/1 4:00,27,94.8,2,0,1
2022/9/1 4:10,26.9,94.8,2,0,1
2022/9/1 4:20,26.9,94.8,2,0,1
2022/9/1 4:30,26.9,94.8,2,0,0
2022/9/1 4:40,26.7,94.8,2,0,1
2022/9/1 4:50,27,94.8,2,0,1
2022/9/1 5:00,26.9,94.8,2,0,0
2022/9/1 5:10,26.9,94.7,2,0,1.5
2022/9/1 5:20,26.7,94.7,4,0,1
2022/9/1 5:30,26.8,94.7,24,0,1
2022/9/1 5:40,26.7,94.7,152,0,1
2022/9/1 5:50,26.5,94.7,289.92,0,1
2022/9/1 6:00,26.8,94.6,499.84,0,1
2022/9/1 6:10,26.6,94.7,999.68,0,1
2022/9/1 6:20,26.4,94.7,999.68,0,1
2022/9/1 6:30,26.6,94.7,999.68,0,1
2022/9/1 6:40,26.7,94.7,1999.36,0,1
2022/9/1 6:50,26.7,94.7,3998.72,0,1
2022/9/1 7:00,26.9,94.7,6999.04,0,1
2022/9/1 7:10,27.2,94.9,7997.44,0,1
2022/9/1 7:20,27.3,95.4,7997.44,0,1
2022/9/1 7:30,27.2,95.7,3998.72,0,1
2022/9/1 7:40,27.3,96.2,1999.36,0,1
2022/9/1 7:50,27.3,95.5,5995.52,0,1
2022/9/1 8:00,27.6,95.3,4999.68,0,1
2022/9/1 8:10,27.7,94.7,1999.36,0,1
2022/9/1 8:20,27.5,94.5,1999.36,0,1
2022/9/1 8:30,27.6,94.2,1999.36,0,1
2022/9/1 8:40,27.7,93.8,3998.72,0,1
2022/9/1 8:50,27.6,92.8,7997.44,0,1
2022/9/1 9:00,27.7,91.7,5995.52,0,1
2022/9/1 9:10,27.7,93.3,4999.68,0,1
2022/9/1 9:20,27.2,95.4,5995.52,0,1
2022/9/1 9:30,26.6,96.2,3998.72,1,1
2022/9/1 9:40,26.5,95.1,3998.72,1,2
2022/9/1 9:50,26.2,94.8,2997.76,1,2
2022/9/1 10:00,26.2,94.7,4999.68,1,1
2022/9/1 10:10,25.8,94.7,5995.52,1,3
2022/9/1 10:20,26.3,94.6,7495.68,1,1
2022/9/1 10:30,26.3,94.6,10997.8,1,0
2022/9/1 10:40,26.3,94.6,6999.04,1,1
2022/9/1 10:50,26.3,94.6,6999.04,1,1
2022/9/1 11:00,26.4,94.7,12994.6,1,1
2022/9/1 11:10,26.5,94.9,12994.6,0,2
2022/9/1 11:20,26.5,95.1,9999.36,0,1
2022/9/1 11:30,26.8,95.2,4999.68,0,1
2022/9/1 11:40,27,95.4,6999.04,0,1
2022/9/1 11:50,26.7,96.2,6999.04,0,2
2022/9/1 12:00,26.7,95.8,12994.6,0,1
2022/9/1 12:10,26.5,95.7,14991.4,0,2
2022/9/1 12:20,27.1,94.3,22999,0,1
2022/9/1 12:30,27.4,92.3,17991.7,0,1.5
2022/9/1 12:40,27.6,90.6,31989.8,0,2
2022/9/1 12:50,27.9,88.1,19998.7,0,1
2022/9/1 13:00,27.7,87.1,23982.1,0,1.5
2022/9/1 13:10,27.7,89.6,12994.6,0,3
2022/9/1 13:20,27.8,87.5,17991.7,0,1.5
2022/9/1 13:30,28.3,85,37990.4,0,2
2022/9/1 13:40,29,81.4,31498.2,0,1
2022/9/1 13:50,29.5,80,38993.9,0,1
2022/9/1 14:00,29.6,79.3,35983.4,0,3
2022/9/1 14:10,29.7,80.6,35983.4,0,1
2022/9/1 14:20,30.1,78.8,18995.2,0,1
2022/9/1 14:30,29.7,79.5,14991.4,0,2
2022/9/1 14:40,29.7,81.2,21995.5,0,1
2022/9/1 14:50,29.8,80.5,26992.6,0,1
2022/9/1 15:00,29.7,80.1,10997.8,0,1
2022/9/1 15:10,29.8,80.2,18995.2,0,1
2022/9/1 15:20,29.6,80,5995.52,0,3
2022/9/1 15:30,29.2,81,3998.72,0,1
2022/9/1 15:40,29,83,3998.72,0,2
2022/9/1 15:50,28.7,85.3,2997.76,0,2
2022/9/1 16:00,28.1,90.2,3998.72,0,1
2022/9/1 16:10,27.7,93.1,1999.36,1,2
2022/9/1 16:20,27.4,94.2,3998.72,1,2
2022/9/1 16:30,27.4,94.6,1999.36,0,2
2022/9/1 16:40,26.8,95.5,1999.36,1,2
2022/9/1 16:50,26.4,95.3,999.68,1,1
2022/9/1 17:00,26.5,95.1,999.68,1,2
2022/9/1 17:10,26.6,95,999.68,1,1
2022/9/1 17:20,26.5,95,464,1,1
2022/9/1 17:30,26.4,95.3,305.92,1,1
2022/9/1 17:40,26.3,95.6,232,0,1.5
2022/9/1 17:50,26.2,96,158,1,1
2022/9/1 18:00,26.3,96.3,212,1,1
2022/9/1 18:10,26.3,96.7,200,1,1
2022/9/1 18:20,26.5,96.3,38,1,1
2022/9/1 18:30,26.4,94.7,16,1,2
2022/9/1 18:40,26.6,94.2,6,1,1.5
2022/9/1 18:50,26.4,94,2,0,1
2022/9/1 19:00,26.3,94.8,2,0,1
2022/9/1 19:10,26.2,95,2,0,0.5
2022/9/1 19:20,26.3,95.4,2,1,1
2022/9/1 19:30,26.4,96,2,1,1
2022/9/1 19:40,26.2,96.8,2,1,1
2022/9/1 19:50,26.1,95.6,2,1,1
2022/9/1 20:00,26.1,95.6,2,1,1
2022/9/1 20:10,25.8,96.6,2,1,1
2022/9/1 20:20,25.7,95.5,2,1,3
2022/9/1 20:30,25.3,95.8,2,1,5
2022/9/1 20:40,25.2,95.1,2,1,3
2022/9/1 20:50,24.9,94.9,2,1,3
2022/9/1 21:00,25,94.8,2,1,1
2022/9/1 21:10,24.9,94.8,2,1,1
2022/9/1 21:20,24.8,94.9,2,1,1
2022/9/1 21:30,24.5,95,2,1,1.5
2022/9/1 21:40,24.4,95,2,1,1
2022/9/1 21:50,24.2,95,2,1,2
2022/9/1 22:00,23.8,95.1,2,1,1
2022/9/1 22:10,23.5,95.3,2,1,1.5
2022/9/1 22:20,23.6,95.6,2,1,4
2022/9/1 22:30,23.5,96.1,2,0,1
2022/9/1 22:40,23.4,96.3,2,1,3
2022/9/1 22:50,23.6,96.1,2,1,2
2022/9/1 23:00,23.4,96.6,2,0,2
2022/9/1 23:10,23.4,97.1,2,0,2
2022/9/1 23:20,23.5,97,2,0,1
2022/9/1 23:30,23.7,96.8,2,0,1
2022/9/1 23:40,23.7,96.5,2,0,1
2022/9/1 23:50,23.5,96.7,2,0,1
2022/9/2 0:00,23.3,97.1,2,0,1
2022/9/2 0:10,23.4,97.2,2,0,1
2022/9/2 0:20,23.2,96.1,2,0,1
2022/9/2 0:30,23.1,95.8,2,0,1
2022/9/2 0:40,23.1,95.9,2,0,2
2022/9/2 0:50,22.9,96,2,0,1
2022/9/2 1:00,23,96.1,2,0,3.5
2022/9/2 1:10,23.5,96.3,2,0,1
2022/9/2 1:20,23.5,96.6,2,0,1
2022/9/2 1:30,23.6,95.8,2,0,2
2022/9/2 1:40,23.6,96,2,0,1.5
2022/9/2 1:50,23.6,95.9,2,0,1
2022/9/2 2:00,23.6,96.3,2,0,1
2022/9/2 2:10,23.8,97,2,0,2
2022/9/2 2:20,23.9,94.6,2,0,2
2022/9/2 2:30,24.1,92.8,2,0,1.5
2022/9/2 2:40,24.2,91,2,0,1
2022/9/2 2:50,24,89.6,2,0,0
2022/9/2 3:00,24.2,89.5,2,0,1
2022/9/2 3:10,24.1,88.2,2,0,1
2022/9/2 3:20,24.3,87.6,2,0,1
2022/9/2 3:30,24.3,87.4,2,0,1
2022/9/2 3:40,24.2,89.1,2,0,0
2022/9/2 3:50,24.2,89.8,2,0,0
2022/9/2 4:00,24.2,89.3,2,0,1
2022/9/2 4:10,23.9,90.6,2,0,1
2022/9/2 4:20,24.1,94.5,2,0,0
2022/9/2 4:30,24,95.1,2,0,0
2022/9/2 4:40,23.8,96.7,2,0,1
2022/9/2 4:50,23.8,97,2,0,0
2022/9/2 5:00,23.7,96.8,2,0,0.5
2022/9/2 5:10,23.8,96.8,2,0,1
2022/9/2 5:20,23.9,97,2,0,0
2022/9/2 5:30,23.9,96.8,14,0,0
2022/9/2 5:40,23.9,94.5,48,0,1
2022/9/2 5:50,23.7,89.1,154,0,1
2022/9/2 6:00,24.1,91.6,999.68,0,1
2022/9/2 6:10,24,86.2,999.68,0,1
2022/9/2 6:20,24.4,85.1,999.68,0,0.5
2022/9/2 6:30,24.6,87.6,1999.36,0,0
2022/9/2 6:40,24.5,92.5,999.68,0,1
2022/9/2 6:50,24.3,92.9,999.68,0,0
2022/9/2 7:00,24.1,92.6,999.68,0,0
2022/9/2 7:10,24.3,92.5,1999.36,0,1
2022/9/2 7:20,24.2,92,3998.72,0,1
2022/9/2 7:30,24.3,91.4,3998.72,0,0
2022/9/2 7:40,24.5,91.4,2997.76,0,1
2022/9/2 7:50,24.3,91.5,2997.76,0,2
2022/9/2 8:00,24.4,92.6,2997.76,0,0
2022/9/2 8:10,24.3,93.1,3998.72,0,0
2022/9/2 8:20,24.3,93.1,3998.72,0,1
2022/9/2 8:30,24.2,92,4999.68,0,1
2022/9/2 8:40,24.5,91.7,5995.52,0,1
2022/9/2 8:50,24.5,91.8,6999.04,0,1
2022/9/2 9:00,24.7,91.5,4999.68,0,1
2022/9/2 9:10,24.7,91.4,6999.04,0,1
2022/9/2 9:20,24.8,89.9,13998.1,0,1
2022/9/2 9:30,25.1,87.9,20992,0,1
2022/9/2 9:40,25.4,84.3,19998.7,0,1
2022/9/2 9:50,25.7,83.4,14991.4,0,1
2022/9/2 10:00,25.9,82.7,12994.6,0,0
2022/9/2 10:10,26,82,11991,0,0
2022/9/2 10:20,25.7,82.9,9999.36,0,1
2022/9/2 10:30,25.7,82.6,7997.44,0,1
2022/9/2 10:40,25.5,82.7,9999.36,0,1
2022/9/2 10:50,25.4,82.6,7997.44,0,1
2022/9/2 11:00,25.5,81.8,12994.6,0,1
2022/9/2 11:10,25.5,82.8,9999.36,1,1
2022/9/2 11:20,25.4,84.2,6999.04,0,1
2022/9/2 11:30,25.2,84.1,5995.52,0,1
2022/9/2 11:40,25.4,86.1,12994.6,0,1
2022/9/2 11:50,25.1,87.7,9999.36,1,1
2022/9/2 12:00,25,89.7,12994.6,0,0
2022/9/2 12:10,25.2,91.3,19998.7,1,1
2022/9/2 12:20,25.3,90.1,23982.1,1,1
2022/9/2 12:30,25.6,88,6999.04,1,1
2022/9/2 12:40,25.3,90.5,6999.04,1,1
2022/9/2 12:50,25.2,91.8,10997.8,1,1
2022/9/2 13:00,25.2,92.6,10997.8,1,1
2022/9/2 13:10,25.3,91.9,9999.36,1,1
2022/9/2 13:20,25,92.2,6999.04,1,1
2022/9/2 13:30,24.9,93.9,4999.68,1,1
2022/9/2 13:40,24.6,93.6,8995.84,1,1
2022/9/2 13:50,24.6,93.2,8995.84,0,1
2022/9/2 14:00,24.7,93.8,9497.6,0,1.5
2022/9/2 14:10,24.9,93,16998.4,0,2
2022/9/2 14:20,25.2,90.3,15994.9,0,1
2022/9/2 14:30,25.3,89.4,15994.9,0,1
2022/9/2 14:40,25.7,88.1,24985.6,0,1
2022/9/2 14:50,25.8,86.5,19998.7,0,1
2022/9/2 15:00,26.2,85.5,25989.1,0,1
2022/9/2 15:10,26.2,84.1,20992,0,1
2022/9/2 15:20,26.5,82.8,14991.4,0,1
2022/9/2 15:30,25.9,85,6999.04,0,1
2022/9/2 15:40,26.1,85.2,6999.04,0,1
2022/9/2 15:50,26,84.5,12994.6,0,0
2022/9/2 16:00,26.4,84.5,8995.84,0,1
2022/9/2 16:10,26.5,83.9,13998.1,0,1
2022/9/2 16:20,26.8,83.9,9999.36,0,1
2022/9/2 16:30,26.7,83.3,13998.1,0,1
2022/9/2 16:40,26.7,82.4,11991,0,1
2022/9/2 16:50,26.9,82.3,9999.36,0,0
2022/9/2 17:00,26.7,82.3,6999.04,0,1
2022/9/2 17:10,26.9,82.7,4497.92,0,1
2022/9/2 17:20,26.9,82.9,2997.76,0,0
2022/9/2 17:30,26.6,83.1,2997.76,0,2
2022/9/2 17:40,26.4,83.6,1999.36,0,1
2022/9/2 17:50,26.4,83.7,999.68,0,1
2022/9/2 18:00,26.3,84.2,999.68,0,0
2022/9/2 18:10,26.2,85.2,409.92,0,0
2022/9/2 18:20,26.1,87.4,134,0,0
2022/9/2 18:30,26.1,88,54,0,1
2022/9/2 18:40,25.7,88.5,10,0,1
2022/9/2 18:50,25.6,88.1,2,0,0.5
2022/9/2 19:00,25.6,88.1,2,0,0
2022/9/2 19:10,25.8,88.5,2,0,1
2022/9/2 19:20,25.9,89.9,2,0,0
2022/9/2 19:30,25.7,90.6,2,0,1
2022/9/2 19:40,25.4,91.6,2,0,1
2022/9/2 19:50,25.5,92.2,2,0,1
2022/9/2 20:00,25.3,92.7,2,0,1
2022/9/2 20:10,25.3,93.1,2,0,1
2022/9/2 20:20,25.2,93.5,2,0,1
2022/9/2 20:30,25.4,94.7,2,0,1
2022/9/2 20:40,25.3,96.1,2,1,1
2022/9/2 20:50,25.3,96.8,2,1,1
2022/9/2 21:00,25.2,96.5,2,1,0
2022/9/2 21:10,25,96.9,2,1,1
2022/9/2 21:20,24.1,95.3,2,1,3
2022/9/2 21:30,24.1,95.2,2,1,0.5
2022/9/2 21:40,23.9,95.2,2,1,0
2022/9/2 21:50,23.8,95.2,2,1,1
2022/9/2 22:00,23.7,95.2,2,1,1
2022/9/2 22:10,23.8,95.1,0,1,0
2022/9/2 22:20,23.7,95.1,2,1,0.5
2022/9/2 22:30,23.7,95.1,2,1,1
2022/9/2 22:40,23.9,95.1,2,1,1
2022/9/2 22:50,23.8,95.1,2,1,1
2022/9/2 23:00,23.8,95,2,1,1
2022/9/2 23:10,23.9,95,2,1,1
2022/9/2 23:20,24.1,95,2,1,0
2022/9/2 23:30,23.9,95,2,1,1
2022/9/2 23:40,23.9,95.1,2,1,1
2022/9/2 23:50,23.8,95.1,2,0,1
2022/9/3 0:00,23.7,95.1,2,0,1
2022/9/3 0:10,23.7,95.1,2,0,1
2022/9/3 0:20,23.8,95.1,2,0,1
2022/9/3 0:30,24,95.1,2,0,1
2022/9/3 0:40,23.9,95.1,2,0,1
2022/9/3 0:50,23.9,95,2,0,0
2022/9/3 1:00,23.7,95.1,2,0,1
2022/9/3 1:10,23.8,95,2,0,0
2022/9/3 1:20,23.7,95,2,0,1
2022/9/3 1:30,23.8,95,0,0,0
2022/9/3 1:40,23.8,95,2,0,0
2022/9/3 1:50,23.8,95,2,0,1
2022/9/3 2:00,23.7,95,2,0,1
2022/9/3 2:10,23.8,94.9,2,0,1
2022/9/3 2:20,23.9,94.9,2,0,1
2022/9/3 2:30,23.9,94.9,2,0,1
2022/9/3 2:40,23.9,94.9,2,0,1
2022/9/3 2:50,24,94.9,2,0,1
2022/9/3 3:00,23.8,94.9,2,0,1
2022/9/3 3:10,23.9,94.9,2,0,0
2022/9/3 3:20,23.8,94.9,2,0,0.5
2022/9/3 3:30,23.9,94.9,2,0,1
2022/9/3 3:40,23.7,94.9,2,0,0
2022/9/3 3:50,23.8,94.9,2,0,1
2022/9/3 4:00,23.8,94.9,2,0,1
2022/9/3 4:10,23.7,94.9,2,0,1
2022/9/3 4:20,23.9,94.9,2,0,1
2022/9/3 4:30,23.9,94.9,2,0,0
2022/9/3 4:40,23.9,94.9,2,0,1
2022/9/3 4:50,24,94.9,2,0,1
2022/9/3 5:00,23.9,94.9,2,0,0
2022/9/3 5:10,23.9,94.9,2,0,1
2022/9/3 5:20,24,94.9,4,0,1
2022/9/3 5:30,23.9,94.9,68,0,1
2022/9/3 5:40,24,94.9,276,0,1
2022/9/3 5:50,24,94.9,401.92,0,1
2022/9/3 6:00,24.2,94.8,499.84,0,1
2022/9/3 6:10,24.1,94.8,999.68,0,0
2022/9/3 6:20,24.1,94.8,999.68,0,0
2022/9/3 6:30,24.1,94.8,1999.36,0,1
2022/9/3 6:40,24,94.8,999.68,0,1
2022/9/3 6:50,24.1,94.8,999.68,0,1
2022/9/3 7:00,24,94.9,1999.36,0,1
2022/9/3 7:10,23.9,94.8,2997.76,0,1
2022/9/3 7:20,24,94.8,5995.52,0,1
2022/9/3 7:30,24.4,94.8,10997.8,0,1
2022/9/3 7:40,24.5,94.7,5995.52,0,1
2022/9/3 7:50,24.7,94.6,12994.6,0,1
2022/9/3 8:00,24.8,94.6,15994.9,0,1
2022/9/3 8:10,25.3,94.7,11991,0,1
2022/9/3 8:20,25.4,94.9,11991,0,1
2022/9/3 8:30,25.5,95.4,18995.2,0,1
2022/9/3 8:40,25.8,96.4,20992,0,1
2022/9/3 8:50,26.2,94.9,20992,0,1
2022/9/3 9:00,26.4,93.4,16998.4,0,1
2022/9/3 9:10,26.7,92.5,15994.9,0,1
2022/9/3 9:20,26.6,92.6,16998.4,0,1
2022/9/3 9:30,26.7,91.4,11991,0,0
2022/9/3 9:40,26.9,91.2,9999.36,0,1
2022/9/3 9:50,26.7,91.3,15994.9,0,0
2022/9/3 10:00,26.8,92,10997.8,0,1
2022/9/3 10:10,26.5,93.2,9999.36,0,1
2022/9/3 10:20,26.6,94.1,9999.36,0,1
2022/9/3 10:30,26.3,94.5,9999.36,0,2
2022/9/3 10:40,26.5,95.1,9999.36,1,1
2022/9/3 10:50,26.5,95.9,11991,1,1
2022/9/3 11:00,26.5,96.5,13998.1,1,1
2022/9/3 11:10,26.5,95.9,13998.1,0,0
2022/9/3 11:20,26.5,95.2,15994.9,1,1
2022/9/3 11:30,26.5,95.7,14991.4,1,1
2022/9/3 11:40,26.5,95.8,14991.4,1,2
2022/9/3 11:50,26,96.7,13998.1,1,1
2022/9/3 12:00,26,95.2,12994.6,1,1
2022/9/3 12:10,26,96.5,7997.44,0,1.5
2022/9/3 12:20,26.2,96.5,16998.4,0,2
2022/9/3 12:30,26.6,95.4,24985.6,0,1
2022/9/3 12:40,27,91.7,25989.1,0,1
2022/9/3 12:50,27,91.6,16998.4,0,0
2022/9/3 13:00,27.2,91.3,15994.9,0,1
2022/9/3 13:10,27.5,90.2,36986.9,0,2
2022/9/3 13:20,27.9,86.7,36986.9,0,2
2022/9/3 13:30,28.2,85.3,35983.4,0,1
2022/9/3 13:40,28.6,82.8,26992.6,0,1
2022/9/3 13:50,28.8,82.9,33996.8,0,1
2022/9/3 14:00,28.6,83.8,28999.7,0,1
2022/9/3 14:10,28.5,83.3,27996.2,0,1
2022/9/3 14:20,28.1,85.4,24985.6,0,1
2022/9/3 14:30,27.3,87.3,21995.5,0,2
2022/9/3 14:40,27.4,88.9,12994.6,0,2
2022/9/3 14:50,27.6,86.8,13998.1,0,2
2022/9/3 15:00,27.4,86.5,13998.1,0,2.5
2022/9/3 15:10,27.4,86.1,11991,0,2
2022/9/3 15:20,27.1,87,12994.6,0,3
2022/9/3 15:30,27,87.6,11991,0,2
2022/9/3 15:40,27.1,87.5,11991,0,3
2022/9/3 15:50,27.1,87.2,9999.36,0,2
2022/9/3 16:00,27.1,88,12994.6,0,3
2022/9/3 16:10,27.3,87.5,11991,0,3
2022/9/3 16:20,27.3,87.5,10997.8,0,1.5
2022/9/3 16:30,27.4,87.1,5995.52,0,1
2022/9/3 16:40,27.1,88.7,6999.04,0,1
2022/9/3 16:50,27,88.4,1999.36,0,1.5
2022/9/3 17:00,27,89.1,2997.76,0,1
2022/9/3 17:10,26.9,89.6,6999.04,0,2
2022/9/3 17:20,26.8,89.3,5995.52,0,1.5
2022/9/3 17:30,26.8,88.9,5995.52,0,2
2022/9/3 17:40,26.9,89.3,4999.68,0,2
2022/9/3 17:50,26.8,89.3,1999.36,0,1.5
2022/9/3 18:00,26.9,90,1999.36,0,1.5
2022/9/3 18:10,26.5,91.1,999.68,0,1
2022/9/3 18:20,26.4,91.5,499.84,0,0.5
2022/9/3 18:30,26.5,91.9,124,0,1
2022/9/3 18:40,26.4,92.4,34,0,1
2022/9/3 18:50,26.4,92.7,4,0,1
2022/9/3 19:00,26.4,92.6,2,0,1
2022/9/3 19:10,26.3,92.8,2,0,1
2022/9/3 19:20,26.4,92.9,2,0,1
2022/9/3 19:30,26.5,93.2,2,0,0.5
2022/9/3 19:40,26.3,93,2,0,1
2022/9/3 19:50,26.4,92.8,2,0,1
2022/9/3 20:00,26.5,94.3,2,1,2
2022/9/3 20:10,26.1,95.8,2,1,0
2022/9/3 20:20,26,96.2,2,1,1.5
2022/9/3 20:30,25.7,95.7,2,1,1
2022/9/3 20:40,25.6,96,2,1,1
2022/9/3 20:50,25.7,95.7,2,1,1
2022/9/3 21:00,25.7,95.6,2,1,1
2022/9/3 21:10,25.4,95.5,0,1,1
2022/9/3 21:20,25.5,95.6,2,0,1
2022/9/3 21:30,25.6,95.7,2,0,1
2022/9/3 21:40,25.3,96.1,2,0,1
2022/9/3 21:50,25.3,96.1,2,0,0
2022/9/3 22:00,25.4,96.2,2,0,1
2022/9/3 22:10,25.2,96.8,2,0,0
2022/9/3 22:20,25.1,96.4,2,0,1
2022/9/3 22:30,25.1,96.4,2,0,1
2022/9/3 22:40,25.2,96.6,2,0,0
2022/9/3 22:50,25.2,96.6,2,0,0
2022/9/3 23:00,24.9,96.8,2,0,1
2022/9/3 23:10,24.9,96.7,2,0,0.5
2022/9/3 23:20,25,96.7,2,0,1
2022/9/3 23:30,24.9,96.3,0,0,1
2022/9/3 23:40,25,96.5,0,0,0
2022/9/3 23:50,24.9,96.7,2,0,0.5
2022/9/4 0:00,24.8,96.6,2,0,0
2022/9/4 0:10,24.9,96.2,2,0,0
2022/9/4 0:20,24.9,95.8,0,0,1
2022/9/4 0:30,24.8,95.6,0,0,1
2022/9/4 0:40,24.9,95.4,2,0,1
2022/9/4 0:50,24.7,95.2,2,0,1
2022/9/4 1:00,24.8,95.1,2,0,0
2022/9/4 1:10,24.6,95,0,0,1
2022/9/4 1:20,24.6,95,2,0,1
2022/9/4 1:30,24.5,94.9,2,0,1
2022/9/4 1:40,24.5,94.9,2,0,1
2022/9/4 1:50,24.5,94.9,2,0,0
2022/9/4 2:00,24.5,94.9,2,0,1
2022/9/4 2:10,24.3,94.9,2,0,1
2022/9/4 2:20,24.3,94.9,2,0,0
2022/9/4 2:30,24.5,94.9,2,0,1
2022/9/4 2:40,24.1,94.9,2,0,1
2022/9/4 2:50,24.3,94.9,2,0,1
2022/9/4 3:00,24.1,94.9,2,0,1
2022/9/4 3:10,24.3,94.9,2,0,1
2022/9/4 3:20,24.1,94.9,2,0,2
2022/9/4 3:30,24.3,94.9,2,0,1
2022/9/4 3:40,24.2,94.9,2,0,1
2022/9/4 3:50,24.2,94.9,2,0,1
2022/9/4 4:00,24.3,94.9,2,0,0
2022/9/4 4:10,24.4,94.9,2,0,0
2022/9/4 4:20,24.2,94.9,2,0,0
2022/9/4 4:30,24,94.9,2,0,0
2022/9/4 4:40,24.3,94.9,2,0,0
2022/9/4 4:50,24.2,94.9,2,0,0
2022/9/4 5:00,24.2,94.9,2,0,1
2022/9/4 5:10,24.2,94.9,2,0,1
2022/9/4 5:20,24.2,94.9,14,0,1
2022/9/4 5:30,24.2,94.9,140,0,1
2022/9/4 5:40,23.9,94.9,499.84,0,1
2022/9/4 5:50,24.1,94.9,999.68,0,1
2022/9/4 6:00,24,94.9,1999.36,0,0
2022/9/4 6:10,24.2,94.9,1999.36,0,1
2022/9/4 6:20,24,94.9,1999.36,0,1
2022/9/4 6:30,24.2,94.9,3998.72,0,1
2022/9/4 6:40,24.2,94.9,3998.72,0,1
2022/9/4 6:50,24.4,94.9,8995.84,0,1
2022/9/4 7:00,24.5,94.9,7997.44,0,0
2022/9/4 7:10,24.7,95,8995.84,0,1
2022/9/4 7:20,24.9,95,14991.4,0,0
2022/9/4 7:30,25.1,95.4,15994.9,0,1
2022/9/4 7:40,25.5,96,24494.1,0,1
2022/9/4 7:50,25.8,94.3,27996.2,0,1
2022/9/4 8:00,26.1,92.4,16998.4,0,1
2022/9/4 8:10,26.3,91,14991.4,0,1
2022/9/4 8:20,26.7,90.3,22999,0,1
2022/9/4 8:30,27,89.1,18995.2,0,1
2022/9/4 8:40,27.2,88.2,20992,0,1
2022/9/4 8:50,27.6,86.9,19998.7,0,1
2022/9/4 9:00,27.8,86.2,18995.2,0,1
2022/9/4 9:10,28,85.5,21995.5,0,1
2022/9/4 9:20,28.3,84.4,21995.5,0,1
2022/9/4 9:30,28.6,82.4,22999,0,1
2022/9/4 9:40,28.7,81.9,19998.7,0,1.5
2022/9/4 9:50,28.7,82.3,22999,0,1
2022/9/4 10:00,29.1,80.3,30986.2,0,1
2022/9/4 10:10,29.2,79.7,21995.5,0,2
2022/9/4 10:20,29.1,82.7,10496,0,1
2022/9/4 10:30,27.6,87.1,5995.52,1,2
2022/9/4 10:40,26.7,92.3,12994.6,1,1
2022/9/4 10:50,26.8,93.5,27996.2,1,2
2022/9/4 11:00,27.1,92.4,32993.3,1,2
2022/9/4 11:10,27.9,89.9,54968.3,1,1
2022/9/4 11:20,29.5,82.2,47964.2,0,3
2022/9/4 11:30,28.6,86.8,21995.5,1,3
2022/9/4 11:40,28.2,91.4,35983.4,1,2
2022/9/4 11:50,28.8,87.2,25989.1,0,1.5
2022/9/4 12:00,29.2,84.5,25989.1,0,1
2022/9/4 12:10,29.6,80.1,26992.6,0,1.5
2022/9/4 12:20,29.8,78.3,33484.8,0,1.5
2022/9/4 12:30,30.3,75.6,32993.3,0,3
2022/9/4 12:40,30.8,72,37990.4,0,2
2022/9/4 12:50,31.5,70.4,31498.2,0,1.5
2022/9/4 13:00,31,71.7,21995.5,0,2.5
2022/9/4 13:10,29.7,79.1,15994.9,0,1
2022/9/4 13:20,29.8,76.3,33996.8,0,4
2022/9/4 13:30,30.2,73,26992.6,0,3
2022/9/4 13:40,30.2,72.9,27996.2,0,2
2022/9/4 13:50,30.4,72.9,29982.7,0,2
2022/9/4 14:00,30.6,72.9,29982.7,0,2
2022/9/4 14:10,30.6,71.9,23982.1,0,1.5
2022/9/4 14:20,30.6,73.3,18995.2,0,2
2022/9/4 14:30,30.5,73,22999,0,2
2022/9/4 14:40,30.6,72,15994.9,0,2
2022/9/4 14:50,30.2,72.9,16998.4,0,2
2022/9/4 15:00,30.2,72,22999,0,2
2022/9/4 15:10,30.3,71.6,25989.1,0,3
2022/9/4 15:20,30.4,70.1,25989.1,0,3.5
2022/9/4 15:30,30.8,69,27484.2,0,2.5
2022/9/4 15:40,30.7,69.7,21995.5,0,2
2022/9/4 15:50,30.7,69.5,22999,0,2
2022/9/4 16:00,30.4,70.8,12994.6,0,2
2022/9/4 16:10,30.2,71.6,10997.8,0,3.5
2022/9/4 16:20,29.8,72.3,12994.6,0,2
2022/9/4 16:30,29.7,72.7,12994.6,0,3
2022/9/4 16:40,29.8,73,14991.4,0,2
2022/9/4 16:50,30,71.7,12994.6,0,3
2022/9/4 17:00,30,72.2,12994.6,0,2
2022/9/4 17:10,30,74.4,12994.6,0,1
2022/9/4 17:20,29.7,76.1,11991,0,1
2022/9/4 17:30,29.5,76.3,8995.84,0,1
2022/9/4 17:40,29.6,76.8,5995.52,0,1
2022/9/4 17:50,29.3,76.8,3998.72,0,1
2022/9/4 18:00,29.2,75.2,1999.36,0,2
2022/9/4 18:10,29.1,76.2,999.68,0,2
2022/9/4 18:20,29,76.7,421.76,0,1
2022/9/4 18:30,29,78.2,204,0,1
2022/9/4 18:40,28.5,80.2,62,0,1
2022/9/4 18:50,28.2,81.9,6,0,1
2022/9/4 19:00,28.1,82.7,2,0,2
2022/9/4 19:10,28.1,83.4,2,0,1
2022/9/4 19:20,27.8,84.4,2,0,1
2022/9/4 19:30,27.8,85.6,2,0,1
2022/9/4 19:40,27.2,88,2,1,2
2022/9/4 19:50,26.9,91.8,2,1,2
2022/9/4 20:00,26.5,93.8,2,1,1
2022/9/4 20:10,26.5,94,0,1,1
2022/9/4 20:20,26.7,93.9,2,1,1
2022/9/4 20:30,26.4,93.7,2,0,1
2022/9/4 20:40,26.6,93.2,2,0,1
2022/9/4 20:50,26.4,93.4,2,0,1
2022/9/4 21:00,26.4,93.4,2,0,1
2022/9/4 21:10,26.3,94,2,0,1
2022/9/4 21:20,26.1,93.6,2,0,1
2022/9/4 21:30,26.1,94.1,2,0,2
2022/9/4 21:40,26,94.6,2,0,0
2022/9/4 21:50,26.2,94.7,2,0,1
2022/9/4 22:00,26.3,94.9,2,0,1
2022/9/4 22:10,26.2,95.2,2,0,1
2022/9/4 22:20,26.1,95.5,2,0,1
2022/9/4 22:30,26,95.6,2,0,1
2022/9/4 22:40,26.1,95.9,2,0,1
2022/9/4 22:50,26.1,96.1,2,0,1
2022/9/4 23:00,26,96.1,2,0,1
2022/9/4 23:10,26,96,2,0,0
2022/9/4 23:20,26.1,95.2,2,0,1
2022/9/4 23:30,26.1,95.3,2,0,1
2022/9/4 23:40,26.1,95.6,2,0,1
2022/9/4 23:50,26.1,95.7,2,0,1
2022/9/5 0:00,26.1,95.5,2,0,1
2022/9/5 0:10,26,95.8,2,0,1
2022/9/5 0:20,25.9,96.5,2,0,1
2022/9/5 0:30,25.7,96.7,2,0,1
2022/9/5 0:40,25.8,96.7,2,0,1
2022/9/5 0:50,25.8,96.5,2,0,1
2022/9/5 1:00,25.8,96.2,2,0,1
2022/9/5 1:10,25.7,96.2,2,0,1
2022/9/5 1:20,25.6,96,2,0,1
2022/9/5 1:30,25.8,95.3,2,0,1
2022/9/5 1:40,25.8,95,2,0,1
2022/9/5 1:50,26,94.7,2,0,1
2022/9/5 2:00,25.8,94.5,2,0,1
2022/9/5 2:10,25.9,94.2,2,0,1
2022/9/5 2:20,26,93.7,0,0,1
2022/9/5 2:30,26.2,93.5,2,0,1
2022/9/5 2:40,26,93.5,2,0,1
2022/9/5 2:50,26.2,93.7,0,0,1
2022/9/5 3:00,26,93.8,2,0,1
2022/9/5 3:10,26.2,93.8,2,0,1
2022/9/5 3:20,26,94.1,0,0,1
2022/9/5 3:30,25.8,94.4,2,0,1
2022/9/5 3:40,25.8,94.3,2,0,1
2022/9/5 3:50,25.9,94.4,2,0,1
2022/9/5 4:00,26,94.8,2,0,1
2022/9/5 4:10,25.9,94.7,2,0,1
2022/9/5 4:20,26.2,93.7,2,0,1
2022/9/5 4:30,26.2,92.7,0,0,2
2022/9/5 4:40,26.3,92.5,2,0,1
2022/9/5 4:50,26.3,92,2,0,1
2022/9/5 5:00,26.1,90.9,2,0,1
2022/9/5 5:10,26.4,90,2,0,1
2022/9/5 5:20,26.3,89.7,6,0,1
2022/9/5 5:30,26.5,89.3,88,0,2
2022/9/5 5:40,26.5,89.6,999.68,0,0
2022/9/5 5:50,26.5,90.5,1999.36,0,0
2022/9/5 6:00,26.5,91.3,4999.68,0,0
2022/9/5 6:10,26.3,91.7,18995.2,0,0
2022/9/5 6:20,26.3,92.3,3998.72,0,0
2022/9/5 6:30,26.4,91.9,4999.68,0,1
2022/9/5 6:40,26.6,91.6,7997.44,0,0
2022/9/5 6:50,26.7,90.5,7997.44,0,0
2022/9/5 7:00,26.8,89.1,5995.52,0,0
2022/9/5 7:10,27.2,87.9,8995.84,0,0
2022/9/5 7:20,27.6,85.6,9999.36,0,1
2022/9/5 7:30,28,83.1,9999.36,0,1
2022/9/5 7:40,28.1,81.3,5995.52,0,2
2022/9/5 7:50,28.1,82.9,8995.84,0,1
2022/9/5 8:00,27.8,83.6,6999.04,0,2
2022/9/5 8:10,27.1,89.5,5995.52,1,3
2022/9/5 8:20,26.7,91.5,12994.6,1,2
2022/9/5 8:30,26.9,92.3,13998.1,1,1
2022/9/5 8:40,27.3,91.1,13998.1,1,1
2022/9/5 8:50,27.5,89.5,11991,0,1.5
2022/9/5 9:00,27.6,89.1,13998.1,0,1
2022/9/5 9:10,27.8,87.8,14991.4,0,1
2022/9/5 9:20,28.1,86.9,14991.4,0,1
2022/9/5 9:30,28.4,85.8,12994.6,0,1
2022/9/5 9:40,28.2,87.6,14991.4,1,1
2022/9/5 9:50,28.2,85.7,18995.2,0,2
2022/9/5 10:00,28.7,82.2,24985.6,0,2
2022/9/5 10:10,29.2,77.1,23982.1,0,3
2022/9/5 10:20,29.4,76,22999,0,3
2022/9/5 10:30,29.8,74.8,26992.6,0,2
2022/9/5 10:40,30.2,73.7,26992.6,0,4
2022/9/5 10:50,30.4,73.4,24985.6,0,1
2022/9/5 11:00,30.3,72.8,23982.1,0,1
2022/9/5 11:10,30.4,72.8,23982.1,0,2
2022/9/5 11:20,30.4,71.6,24985.6,0,3
2022/9/5 11:30,30.5,71,22999,0,4
2022/9/5 11:40,30.4,71.2,21995.5,0,2
2022/9/5 11:50,30.4,71,18995.2,0,2
2022/9/5 12:00,30.4,70.4,17991.7,0,2
2022/9/5 12:10,30.5,69.8,17991.7,0,3
2022/9/5 12:20,30.5,70.3,15994.9,0,2
2022/9/5 12:30,30.6,69.7,15994.9,0,2
2022/9/5 12:40,30.6,69.9,17991.7,0,2
2022/9/5 12:50,30.5,69.8,18995.2,0,2
2022/9/5 13:00,30.5,70.6,10997.8,0,4
2022/9/5 13:10,29.5,77.9,7997.44,1,2
2022/9/5 13:20,28.5,83.6,18995.2,1,3
2022/9/5 13:30,28.5,84.6,22999,0,1
2022/9/5 13:40,29,82,24494.1,0,2
2022/9/5 13:50,29.3,79.6,24985.6,0,2
2022/9/5 14:00,29.6,78.1,22999,0,3
2022/9/5 14:10,29.4,78.2,21995.5,0,3
2022/9/5 14:20,29.6,78.3,21995.5,0,2
2022/9/5 14:30,29.7,77.2,22999,0,4
2022/9/5 14:40,29.7,76.7,20992,0,2.5
2022/9/5 14:50,29.7,76.1,19998.7,0,2
2022/9/5 15:00,29.4,78.9,20992,0,3
2022/9/5 15:10,29.4,78.9,41492.5,0,2
2022/9/5 15:20,29.9,77,21995.5,0,3
2022/9/5 15:30,29.5,77.8,17991.7,0,2
2022/9/5 15:40,29.4,76.6,16998.4,0,3
2022/9/5 15:50,29.6,76,17991.7,0,3
2022/9/5 16:00,29.5,76.8,17991.7,0,3
2022/9/5 16:10,29.3,76.9,15994.9,0,4
2022/9/5 16:20,29.4,77,15994.9,0,4
2022/9/5 16:30,29.4,77.3,20992,0,2
2022/9/5 16:40,29.7,74.9,16998.4,0,3
2022/9/5 16:50,29.7,75,15994.9,0,2
2022/9/5 17:00,29.3,76.1,12994.6,0,4
2022/9/5 17:10,29.5,75.5,10997.8,0,2
2022/9/5 17:20,29.6,74.8,7997.44,0,3
2022/9/5 17:30,29.4,74.8,4999.68,0,3
2022/9/5 17:40,29.3,75.9,3998.72,0,2
2022/9/5 17:50,29.1,76.4,2997.76,0,4
2022/9/5 18:00,28.6,77,1999.36,0,4
2022/9/5 18:10,28.9,76,999.68,0,4
2022/9/5 18:20,28.9,75.7,329.92,0,3
2022/9/5 18:30,29,75.3,100,0,4
2022/9/5 18:40,28.9,75.8,12,0,3
2022/9/5 18:50,29,75.4,2,0,3
2022/9/5 19:00,28.9,75.1,2,0,3
2022/9/5 19:10,29,74.3,2,0,3
2022/9/5 19:20,29.2,74.1,2,0,3
2022/9/5 19:30,29,74.3,2,0,3